Photometre #843[NE_1.6_Dp] Camborne_MO AOT

File : 20210611_843.hum

11/06/2021,05:19:03,TEMP=13.9,BA=5.68,STAT.A,ExtBa=12.30
11/06/2021,05:23:29,TEMP=14.1,BA=5.64,STAT.A,ExtBa=12.30
11/06/2021,05:28:37,TEMP=14.2,BA=5.64,STAT.A,ExtBa=12.30
11/06/2021,05:34:39,TEMP=14.2,BA=5.64,STAT.A,ExtBa=12.30
11/06/2021,05:41:51,TEMP=14.3,BA=5.68,STAT.A,ExtBa=12.30
11/06/2021,05:50:36,TEMP=14.3,BA=5.68,STAT.A,ExtBa=12.30
11/06/2021,06:01:29,TEMP=14.4,BA=5.68,STAT.B,ExtBa=12.30
11/06/2021,06:06:36,TEMP=14.5,BA=5.68,STAT.A,ExtBa=12.30
11/06/2021,06:13:03,TEMP=14.6,BA=5.64,STAT.A,ExtBa=12.30
11/06/2021,06:18:16,TEMP=14.9,BA=5.64,STAT.h
11/06/2021,06:18:17,TEMP=14.9,BA=5.64,STAT.h
11/06/2021,06:25:49,TEMP=14.6,BA=5.68,STAT.A,ExtBa=12.30
11/06/2021,06:33:32,TEMP=15.0,BA=5.68,STAT.h
11/06/2021,06:42:50,TEMP=15.0,BA=5.68,STAT.h
11/06/2021,06:42:56,TEMP=15.0,BA=5.68,STAT.h
11/06/2021,06:53:36,TEMP=15.0,BA=5.68,STAT.h
11/06/2021,06:53:37,TEMP=15.0,BA=5.68,STAT.h
11/06/2021,07:06:15,TEMP=15.0,BA=5.68,STAT.h
11/06/2021,07:06:21,TEMP=15.0,BA=5.68,STAT.h
11/06/2021,07:21:24,TEMP=15.0,BA=5.68,STAT.h
11/06/2021,07:39:57,TEMP=15.0,BA=5.68,STAT.h
11/06/2021,08:17:44,TEMP=15.0,BA=5.68,STAT.h
11/06/2021,08:20:46,TEMP=15.0,BA=5.68,STAT.h
11/06/2021,08:35:46,TEMP=15.0,BA=5.68,STAT.h
11/06/2021,08:35:47,TEMP=15.0,BA=5.68,STAT.h
11/06/2021,08:50:46,TEMP=15.0,BA=5.64,STAT.h
11/06/2021,08:50:47,TEMP=15.0,BA=5.64,STAT.h
11/06/2021,09:05:46,TEMP=15.0,BA=5.68,STAT.h
11/06/2021,09:05:47,TEMP=15.0,BA=5.68,STAT.h
11/06/2021,09:20:46,TEMP=15.0,BA=5.68,STAT.h
11/06/2021,09:35:46,TEMP=15.0,BA=5.68,STAT.h
11/06/2021,09:35:47,TEMP=15.0,BA=5.68,STAT.h
11/06/2021,09:51:09,TEMP=17.0,BA=5.68,STAT.D,ExtBa=12.30
11/06/2021,10:06:09,TEMP=17.6,BA=5.68,STAT.D,ExtBa=12.30
11/06/2021,10:21:11,TEMP=17.2,BA=5.68,STAT.F,ExtBa=12.30
11/06/2021,10:36:10,TEMP=16.9,BA=5.64,STAT.D,ExtBa=12.30
11/06/2021,10:51:10,TEMP=17.2,BA=5.64,STAT.D,ExtBa=12.30
11/06/2021,11:06:10,TEMP=17.5,BA=5.64,STAT.D,ExtBa=12.30
11/06/2021,11:21:12,TEMP=17.4,BA=5.64,STAT.F,ExtBa=12.30
11/06/2021,11:36:10,TEMP=18.3,BA=5.68,STAT.D,ExtBa=12.30
11/06/2021,11:51:11,TEMP=19.1,BA=5.64,STAT.D,ExtBa=12.30
11/06/2021,12:06:10,TEMP=19.0,BA=5.64,STAT.D,ExtBa=12.30
11/06/2021,12:21:12,TEMP=18.6,BA=5.64,STAT.F,ExtBa=12.30
11/06/2021,12:36:10,TEMP=18.3,BA=5.64,STAT.D,ExtBa=12.30
11/06/2021,12:51:10,TEMP=18.5,BA=5.64,STAT.D,ExtBa=12.30
11/06/2021,13:06:10,TEMP=18.6,BA=5.64,STAT.D,ExtBa=12.30
11/06/2021,13:21:11,TEMP=18.8,BA=5.64,STAT.F,ExtBa=12.30
11/06/2021,13:36:10,TEMP=18.7,BA=5.64,STAT.D,ExtBa=12.30
11/06/2021,13:51:10,TEMP=18.3,BA=5.64,STAT.D,ExtBa=12.30
11/06/2021,14:06:10,TEMP=17.6,BA=5.64,STAT.D,ExtBa=12.30
11/06/2021,14:21:11,TEMP=17.6,BA=5.64,STAT.F,ExtBa=12.30
11/06/2021,14:36:09,TEMP=18.0,BA=5.64,STAT.D,ExtBa=12.30
11/06/2021,14:51:09,TEMP=18.1,BA=5.64,STAT.D,ExtBa=12.30
11/06/2021,15:06:09,TEMP=18.3,BA=5.64,STAT.D,ExtBa=12.30
11/06/2021,15:21:11,TEMP=18.2,BA=5.64,STAT.F,ExtBa=12.30
11/06/2021,15:36:09,TEMP=18.6,BA=5.64,STAT.D,ExtBa=12.30
11/06/2021,15:51:09,TEMP=18.4,BA=5.64,STAT.D,ExtBa=12.30
11/06/2021,16:06:09,TEMP=17.4,BA=5.64,STAT.D,ExtBa=12.30
11/06/2021,16:21:11,TEMP=16.8,BA=5.64,STAT.E,ExtBa=12.30
11/06/2021,16:24:12,TEMP=17.0,BA=5.64,STAT.B,ExtBa=12.20
11/06/2021,17:01:59,TEMP=16.3,BA=5.64,STAT.B,ExtBa=12.30
11/06/2021,17:20:32,TEMP=16.2,BA=5.64,STAT.A,ExtBa=12.30
11/06/2021,17:35:41,TEMP=16.3,BA=5.64,STAT.A,ExtBa=12.30
11/06/2021,17:48:20,TEMP=16.7,BA=5.64,STAT.A,ExtBa=12.30
11/06/2021,17:59:06,TEMP=16.9,BA=5.60,STAT.A,ExtBa=12.30
11/06/2021,18:08:24,TEMP=17.0,BA=5.64,STAT.C,ExtBa=12.30
11/06/2021,18:16:31,TEMP=17.0,BA=5.64,STAT.A,ExtBa=12.30
11/06/2021,18:23:40,TEMP=16.9,BA=5.64,STAT.A,ExtBa=12.30
11/06/2021,18:30:00,TEMP=16.8,BA=5.64,STAT.A,ExtBa=12.20
11/06/2021,18:35:43,TEMP=16.7,BA=5.60,STAT.A,ExtBa=12.20
11/06/2021,18:40:51,TEMP=16.4,BA=5.64,STAT.B,ExtBa=12.20
11/06/2021,18:51:44,TEMP=15.9,BA=5.64,STAT.A,ExtBa=12.30
11/06/2021,19:00:29,TEMP=15.8,BA=5.64,STAT.A,ExtBa=12.30
11/06/2021,19:07:41,TEMP=15.7,BA=5.64,STAT.A,ExtBa=12.30
11/06/2021,19:13:43,TEMP=15.5,BA=5.64,STAT.A,ExtBa=12.30
11/06/2021,19:18:51,TEMP=15.4,BA=5.64,STAT.A,ExtBa=12.20
11/06/2021,19:23:17,TEMP=15.3,BA=5.64,STAT.A,ExtBa=12.20